Location: Unspecified
(0.0000°N, 0.0000°E)
Time: 13:35:00
(UTC+00:00)

Courier 1B Rocket - All Passes

Search period start: 21 October 2014 00:00
Search period end: 31 October 2014 00:00
Orbit: 921 x 1202 km, 28.3° (Epoch: 18 October)

Date Brightness Start Highest point End Pass type
(mag) Time Alt. Az. Time Alt. Az. Time Alt. Az.
21 Oct - 00:45:20 10° WSW 00:52:43 61° NNW 01:00:25 10° NE night (unlit)
21 Oct - 02:41:34 10° WNW 02:47:02 21° NNW 02:52:33 10° NNE visible
21 Oct - 08:33:24 10° N 08:34:48 11° NNE 08:36:11 10° NNE daylight
21 Oct - 10:23:19 10° NW 10:29:23 32° NNE 10:35:06 10° E daylight
21 Oct - 12:16:23 10° WNW 12:22:59 70° SSW 12:29:15 10° SE daylight
21 Oct - 14:12:20 10° WSW 14:16:35 19° SSW 14:20:48 10° SSE daylight
21 Oct - 21:51:47 10° SSW 21:57:40 28° SSE 22:03:52 10° E visible
21 Oct - 23:44:09 10° WSW 23:51:29 88° NNW 23:59:15 10° ENE night (unlit)
22 Oct - 01:39:10 10° W 01:45:33 29° NNW 01:52:05 10° NNE night (unlit)
22 Oct - 03:40:07 10° NNW 03:40:34 10° NNW 03:41:02 10° NNW visible
22 Oct - 09:22:46 10° NNW 09:28:09 23° NNE 09:33:15 10° ENE daylight
22 Oct - 11:15:10 10° NW 11:22:01 77° NNE 11:28:25 10° ESE daylight
22 Oct - 13:10:01 10° W 13:15:30 28° SSW 13:20:48 10° SSE daylight
22 Oct - 20:51:48 10° SSW 20:56:25 19° SSE 21:01:13 10° ESE visible
22 Oct - 22:43:18 10° SW 22:50:18 64° SSE 22:57:48 10° ENE night (unlit)
23 Oct - 00:37:18 10° W 00:44:10 41° NNW 00:51:21 10° NE night (unlit)
23 Oct - 02:35:01 10° NW 02:38:49 14° NNW 02:42:40 10° N visible
23 Oct - 08:22:26 10° NNW 08:26:44 16° NNE 08:30:53 10° ENE daylight
23 Oct - 10:14:10 10° NW 10:20:58 51° NNE 10:27:19 10° ESE daylight
23 Oct - 12:08:09 10° W 12:14:29 44° SSW 12:20:30 10° SE daylight
23 Oct - 14:06:06 10° SW 14:08:23 12° SSW 14:10:40 10° S daylight
23 Oct - 19:52:35 10° S 19:55:04 12° SSE 19:57:37 10° SE visible
23 Oct - 21:42:43 10° SW 21:49:10 42° SSE 21:56:03 10° E visible
23 Oct - 23:35:50 10° WSW 23:42:54 59° NNW 23:50:24 10° NE night (unlit)
24 Oct - 01:32:00 10° WNW 01:37:12 20° NNW 01:42:32 10° NNE night (unlit)
24 Oct - 07:22:36 10° N 07:25:09 12° NNE 07:27:40 10° NE daylight
24 Oct - 09:13:19 10° NW 09:19:49 35° NNE 09:25:53 10° E daylight
24 Oct - 11:06:35 10° WNW 11:13:30 69° SSW 11:19:57 10° SE daylight
24 Oct - 13:02:46 10° WSW 13:07:09 19° SSW 13:11:26 10° SSE daylight
24 Oct - 20:42:27 10° SSW 20:48:02 28° SSE 20:53:56 10° E visible
24 Oct - 22:34:44 10° WSW 22:41:43 86° NNW 22:49:14 10° ENE night (unlit)
25 Oct - 00:29:41 10° W 00:35:44 27° NNW 00:42:02 10° NNE night (unlit)
25 Oct - 08:12:40 10° NNW 08:18:30 25° NNE 08:24:04 10° ENE daylight
25 Oct - 10:05:17 10° WNW 10:12:29 80° NNE 10:19:09 10° ESE daylight
25 Oct - 12:00:19 10° W 12:06:02 29° SSW 12:11:29 10° SSE daylight
25 Oct - 19:42:32 10° SSW 19:46:51 18° SSE 19:51:19 10° ESE visible
25 Oct - 21:33:55 10° SW 21:40:37 64° SSE 21:47:49 10° ENE visible
25 Oct - 23:27:52 10° W 23:34:23 39° NNW 23:41:19 10° NE night (unlit)
26 Oct - 01:25:37 10° NW 01:29:02 13° NNW 01:32:31 10° N night (unlit)
26 Oct - 07:12:14 10° NNW 07:17:03 18° NNE 07:21:43 10° ENE daylight
26 Oct - 09:04:10 10° NW 09:11:22 54° NNE 09:18:03 10° ESE daylight
26 Oct - 10:58:20 10° W 11:04:59 44° SSW 11:11:13 10° SE daylight
26 Oct - 12:56:26 10° SW 12:58:56 12° SSW 13:01:24 10° S daylight
26 Oct - 18:43:28 10° S 18:45:34 12° SSE 18:47:41 10° SE visible
26 Oct - 20:33:24 10° SW 20:39:33 42° SSE 20:46:07 10° E visible
26 Oct - 22:26:28 10° WSW 22:33:10 56° NNW 22:40:23 10° NE night (unlit)
27 Oct - 00:22:38 10° WNW 00:27:26 19° NNW 00:32:25 10° NNE night (unlit)
27 Oct - 06:12:12 10° N 06:15:26 13° NNE 06:18:37 10° NE daylight
27 Oct - 08:03:16 10° NW 08:10:08 37° NNE 08:16:36 10° E daylight
27 Oct - 09:56:41 10° WNW 10:03:55 68° SSW 10:10:39 10° SE daylight
27 Oct - 11:53:00 10° WSW 11:57:40 19° SSW 12:02:09 10° SSE daylight
27 Oct - 19:33:09 10° SSW 19:38:30 27° SSE 19:44:05 10° E visible
27 Oct - 21:25:24 10° WSW 21:32:04 83° NNW 21:39:15 10° ENE visible
27 Oct - 23:20:21 10° W 23:26:00 26° NNW 23:31:57 10° NNE night (unlit)
28 Oct - 07:02:34 10° NNW 07:08:46 26° NNE 07:14:44 10° E daylight
28 Oct - 08:55:17 10° WNW 09:02:49 82° NNE 09:09:49 10° ESE daylight
28 Oct - 10:50:28 10° W 10:56:30 29° SSW 11:02:12 10° SSE daylight
28 Oct - 18:33:15 10° SSW 18:37:22 18° SSE 18:41:34 10° ESE visible
28 Oct - 20:24:37 10° SW 20:31:02 65° SSE 20:37:54 10° ENE visible
28 Oct - 22:18:34 10° W 22:24:42 36° NNW 22:31:16 10° NE night (unlit)
29 Oct - 00:16:32 10° NW 00:19:19 12° NNW 00:22:09 10° N night (unlit)
29 Oct - 06:02:06 10° NNW 06:07:17 19° NNE 06:12:21 10° ENE daylight
29 Oct - 07:54:08 10° NW 08:01:38 56° NNE 08:08:40 10° ESE daylight
29 Oct - 09:48:24 10° W 09:55:22 44° SSW 10:01:53 10° SE daylight
29 Oct - 11:46:32 10° SW 11:49:25 13° SSW 11:52:15 10° S daylight
29 Oct - 17:34:14 10° S 17:36:07 11° SSE 17:38:00 10° SE daylight
29 Oct - 19:24:06 10° SW 19:30:03 42° SSE 19:36:19 10° E visible
29 Oct - 21:17:11 10° WSW 21:23:34 53° NNW 21:30:24 10° NE visible
29 Oct - 23:13:27 10° WNW 23:17:45 17° NNW 23:22:13 10° NNE night (unlit)
30 Oct - 05:02:02 10° N 05:05:39 14° NNE 05:09:14 10° NE visible
30 Oct - 06:53:13 10° NW 07:00:21 39° NNE 07:07:10 10° E daylight
30 Oct - 08:46:41 10° WNW 08:54:13 67° SSW 09:01:17 10° SE daylight
30 Oct - 10:43:06 10° WSW 10:48:06 20° SSW 10:52:53 10° SSE daylight
30 Oct - 18:23:50 10° SSW 18:29:02 27° SSE 18:34:24 10° E visible
30 Oct - 20:16:07 10° WSW 20:22:32 81° NNW 20:29:22 10° ENE visible
30 Oct - 22:11:09 10° WNW 22:16:22 24° NNW 22:21:51 10° NNE night (unlit)
